Flag for Germany Weather past 2 weeks in Neumarkt in der Oberpfalz, Bavaria, Germany

Now
68 °F

Broken clouds.


Feels Like: 68 °F
Forecast: 45 / 73 °F
Wind: 6 mph from North

Location: Hohenfels

Current Time: Jul 30, 2015 at 4:32:02 PM

Latest Report: Jul 30, 2015 at 3:58 PM


Visibility: N/A

Pressure: 29.99 "Hg

Humidity: 38%

Dew point: 41 °F

Location of Neumarkt in der OberpfalzLocation

Historic Weather in Neumarkt in der Oberpfalz — Graph

°F

Neumarkt in der Oberpfalz temperature yesterday

Maximum temperature yesterday: 66 °F (at 12:58 PM)
Minimum temperature yesterday: 50 °F (at 10:58 PM)
Average temperature yesterday: 58 °F

Past Weeks' High & Low Weather Summary

 TemperatureHumidityPressure
High97 °F (Jul 22, 4:58 PM)100% (Jul 23, 3:58 AM)30.10 "Hg (Jul 23, 3:58 AM)
Low45 °F (Jul 30, 5:58 AM)23% (Jul 22, 4:58 PM)29.66 "Hg (Jul 25, 2:58 AM)
Average69 °F65%29.91 "Hg
* Reported Jul 15 2:58 PM — Jul 30 2:58 PM, Neumarkt in der Oberpfalz, Weather by CustomWeather, © 2015

Note: Actual official high and low records may vary slightly from our data, if they occured in-between our weather recording intervals... More about our weather records

Advertising

Neumarkt in der Oberpfalz weather history for previous 24 hours

 ConditionsComfort  
Time TempWeatherWind HumidityBarometerVisibility
2:58 PM
Thu, Jul 30
68 °FScattered clouds.12 mph35%29.99 "HgN/A
1:58 PM68 °FPassing clouds.9 mph33%29.98 "HgN/A
12:58 PM66 °FPassing clouds.8 mph37%29.99 "HgN/A
11:58 AM64 °FBroken clouds.9 mph46%29.99 "HgN/A
10:58 AM64 °FPassing clouds.8 mph46%29.99 "HgN/A
9:58 AM63 °FScattered clouds.9 mph52%29.99 "HgN/A
8:58 AM59 °FSunny.7 mph63%29.99 "HgN/A
7:58 AM54 °FSunny.6 mph82%29.99 "HgN/A
6:58 AM46 °FSunny.No wind93%29.99 "HgN/A
5:58 AM45 °FClear.1 mph93%29.99 "HgN/A
4:58 AM46 °FClear.3 mph93%29.98 "HgN/A
3:58 AM46 °FClear.2 mph93%29.98 "HgN/A
2:58 AM50 °FClear.2 mph88%29.97 "HgN/A
1:58 AM50 °FPassing clouds.5 mph88%29.97 "HgN/A
12:58 AM50 °FClear.5 mph88%29.96 "HgN/A
11:58 PM
Wed, Jul 29
50 °FClear.6 mph88%29.95 "HgN/A
10:58 PM50 °FClear.5 mph88%29.94 "HgN/A
9:58 PM52 °FClear.1 mph88%29.91 "HgN/A
8:58 PM57 °FSunny.No wind77%29.89 "HgN/A
7:58 PM61 °FSunny.6 mph72%29.87 "HgN/A
6:58 PM61 °FPassing clouds.10 mph72%29.86 "HgN/A
6:02 PM59 °FCloudy.12 mph82%29.86 "HgN/A
5:58 PM59 °FMore clouds than sun.7 mph82%29.85 "HgN/A
5:02 PM59 °FOvercast.10 mph82%29.85 "HgN/A
4:58 PM59 °FLight rain. Overcast.7 mph82%29.84 "HgN/A
Weather by CustomWeather, © 2015

See weather overviewHow to use our weather pages